Location: �bnet
(46.9957°N, 8.4908°E)
Time: 14:56:15
(UTC+00:00)

Spot 4 - Pass Details

Date: 11 May 2021
Orbit: 703 x 724 km, 98.3° (Epoch: 18 June)

Event Time Altitude Azimuth Distance (km) Brightness Sun altitude
Exits shadow 21:55:19 41° 106° (ESE) 1,044 4.4 -22.0°
Maximum altitude 21:56:21 48° 69° (ENE) 945 4.4 -22.1°
Drops below altitude 10° 22:01:02 10° 357° (N) 2,222 7.4 -22.4°
Sets 22:03:22 0° 351° (N) 3,146 8.6 -22.5°
